LRCK Weather Reports


Display with metric or nautical units.
time (UTC)temp
F
wind
direction
speed
MPH
gust
MPH
rain 1hr
in
rain 24hr
in
rain mn
in
humidity
%
barometer
mb
20260902070317 79 50 7.0 0.0 0.00 0.00 0.00 51 1019.0
20260902064817 77 40 7.0 0.0 0.00 0.00 0.00 57 1018.0
20260902063318 77 40 7.0 0.0 0.00 0.00 0.00 57 1018.0
20260902061818 75 40 8.0 0.0 0.00 0.00 0.00 61 1018.0
20260902060317 75 40 8.0 0.0 0.00 0.00 0.00 61 1018.0
20260902054817 73 30 7.0 0.0 0.00 0.00 0.00 65 1018.0
20260902053317 73 30 7.0 0.0 0.00 0.00 0.00 65 1018.0
20260902051817 68 1.0 0.0 0.00 0.00 0.00 73 1018.0
20260902050318 68 1.0 0.0 0.00 0.00 0.00 73 1018.0
20260902044817 64 1.0 0.0 0.00 0.00 0.00 83 1018.0
20260902043317 64 1.0 0.0 0.00 0.00 0.00 83 1018.0
20260902041817 64 350 10.0 0.0 0.00 0.00 0.00 78 1018.0
20260902040321 64 350 10.0 0.0 0.00 0.00 0.00 78 1018.0
20260902034817 64 350 8.0 0.0 0.00 0.00 0.00 78 1018.0
20260902033318 64 350 8.0 0.0 0.00 0.00 0.00 78 1018.0
20260902031817 64 2.0 0.0 0.00 0.00 0.00 78 1018.0
20260902030317 64 2.0 0.0 0.00 0.00 0.00 78 1018.0
20260902024817 64 320 9.0 0.0 0.00 0.00 0.00 83 1018.0
20260902023317 64 320 9.0 0.0 0.00 0.00 0.00 83 1018.0
20260902021819 64 340 5.0 0.0 0.00 0.00 0.00 83 1018.0
20260902020317 64 340 5.0 0.0 0.00 0.00 0.00 83 1018.0
20260902014817 63 340 8.0 0.0 0.00 0.00 0.00 94 1018.0
20260902013317 63 340 8.0 0.0 0.00 0.00 0.00 94 1018.0
20260902011816 63 320 6.0 0.0 0.00 0.00 0.00 88 1018.0
20260902010317 63 320 6.0 0.0 0.00 0.00 0.00 88 1018.0
20260902004817 63 330 5.0 0.0 0.00 0.00 0.00 94 1017.0
20260902003316 63 330 5.0 0.0 0.00 0.00 0.00 94 1017.0
20260902001818 66 300 8.0 0.0 0.00 0.00 0.00 88 1017.0
20260902000323 66 300 8.0 0.0 0.00 0.00 0.00 88 1017.0
20260901234819 66 290 8.0 0.0 0.00 0.00 0.00 88 1017.0
20260901233317 66 290 8.0 0.0 0.00 0.00 0.00 88 1017.0
20260901231817 64 270 6.0 0.0 0.00 0.00 0.00 88 1017.0
20260901230333 64 270 6.0 0.0 0.00 0.00 0.00 88 1017.0
20260901224817 64 270 6.0 0.0 0.00 0.00 0.00 88 1017.0
20260901223317 64 270 6.0 0.0 0.00 0.00 0.00 88 1017.0
20260901221817 64 250 6.0 0.0 0.00 0.00 0.00 94 1017.0
20260901220317 64 250 6.0 0.0 0.00 0.00 0.00 94 1017.0
20260901214818 64 250 5.0 0.0 0.00 0.00 0.00 88 1017.0
20260901213423 64 250 5.0 0.0 0.00 0.00 0.00 88 1017.0
20260901211817 64 180 5.0 0.0 0.00 0.00 0.00 83 1017.0
20260901210347 64 180 5.0 0.0 0.00 0.00 0.00 83 1017.0
20260901204819 64 160 5.0 0.0 0.00 0.00 0.00 78 1017.0
20260901203349 64 160 5.0 0.0 0.00 0.00 0.00 78 1017.0
20260901201818 66 170 5.0 0.0 0.00 0.00 0.00 78 1017.0
20260901200317 66 170 5.0 0.0 0.00 0.00 0.00 78 1017.0
20260901194933 66 150 5.0 0.0 0.00 0.00 0.00 73 1017.0
20260901193340 66 150 5.0 0.0 0.00 0.00 0.00 73 1017.0
20260901191840 66 150 6.0 0.0 0.00 0.00 0.00 68 1017.0
20260901190331 66 150 6.0 0.0 0.00 0.00 0.00 68 1017.0
20260901184817 68 170 7.0 0.0 0.00 0.00 0.00 64 1017.0
20260901183317 68 170 7.0 0.0 0.00 0.00 0.00 64 1017.0
20260901181817 68 140 5.0 0.0 0.00 0.00 0.00 64 1017.0
20260901180318 68 140 5.0 0.0 0.00 0.00 0.00 64 1017.0
20260901174816 68 150 7.0 0.0 0.00 0.00 0.00 64 1017.0
20260901173318 68 150 7.0 0.0 0.00 0.00 0.00 64 1017.0
20260901171818 72 130 6.0 0.0 0.00 0.00 0.00 57 1016.0
20260901170318 72 130 6.0 0.0 0.00 0.00 0.00 57 1016.0
20260901164818 73 130 7.0 0.0 0.00 0.00 0.00 53 1016.0
20260901163324 73 130 7.0 0.0 0.00 0.00 0.00 53 1016.0
20260901161817 77 130 8.0 0.0 0.00 0.00 0.00 47 1016.0
20260901160321 77 130 8.0 0.0 0.00 0.00 0.00 47 1016.0
20260901154817 79 130 10.0 0.0 0.00 0.00 0.00 45 1016.0
20260901153317 79 130 10.0 0.0 0.00 0.00 0.00 45 1016.0
20260901151817 79 140 10.0 0.0 0.00 0.00 0.00 37 1016.0
20260901150317 79 140 10.0 0.0 0.00 0.00 0.00 37 1016.0
20260901144855 81 130 10.0 0.0 0.00 0.00 0.00 37 1016.0
20260901143317 81 130 10.0 0.0 0.00 0.00 0.00 37 1016.0
20260901141833 81 130 10.0 0.0 0.00 0.00 0.00 37 1016.0
20260901140433 81 130 10.0 0.0 0.00 0.00 0.00 37 1016.0
20260901134817 82 110 11.0 0.0 0.00 0.00 0.00 32 1016.0
20260901133318 82 110 11.0 0.0 0.00 0.00 0.00 32 1016.0
20260901131826 82 120 10.0 0.0 0.00 0.00 0.00 32 1016.0
20260901130317 82 120 10.0 0.0 0.00 0.00 0.00 32 1016.0
20260901124823 82 100 9.0 0.0 0.00 0.00 0.00 35 1016.0
20260901123318 82 100 9.0 0.0 0.00 0.00 0.00 35 1016.0
20260901121816 82 90 8.0 0.0 0.00 0.00 0.00 40 1017.0
20260901120317 82 90 8.0 0.0 0.00 0.00 0.00 40 1017.0
20260901114817 84 90 9.0 0.0 0.00 0.00 0.00 37 1017.0
20260901113317 84 90 9.0 0.0 0.00 0.00 0.00 37 1017.0
20260901111817 84 110 8.0 0.0 0.00 0.00 0.00 37 1017.0
20260901110317 84 110 8.0 0.0 0.00 0.00 0.00 37 1017.0
20260901104817 84 100 8.0 0.0 0.00 0.00 0.00 37 1017.0
20260901103317 84 100 8.0 0.0 0.00 0.00 0.00 37 1017.0
20260901101915 82 5.0 0.0 0.00 0.00 0.00 40 1017.0
20260901100319 82 5.0 0.0 0.00 0.00 0.00 40 1017.0
20260901094818 81 7.0 0.0 0.00 0.00 0.00 42 1017.0
20260901093317 81 7.0 0.0 0.00 0.00 0.00 42 1017.0
20260901091817 81 120 5.0 0.0 0.00 0.00 0.00 45 1017.0
20260901090317 81 120 5.0 0.0 0.00 0.00 0.00 45 1017.0
20260901084817 79 120 6.0 0.0 0.00 0.00 0.00 48 1017.0
20260901083326 79 120 6.0 0.0 0.00 0.00 0.00 48 1017.0
20260901081817 81 110 6.0 0.0 0.00 0.00 0.00 42 1017.0
20260901080319 81 110 6.0 0.0 0.00 0.00 0.00 42 1017.0
20260901074824 77 90 6.0 0.0 0.00 0.00 0.00 54 1017.0
20260901073317 77 90 6.0 0.0 0.00 0.00 0.00 54 1017.0
20260901071816 75 110 5.0 0.0 0.00 0.00 0.00 61 1017.0